Weather History for Marshfield, WI

Change the Weather History Date:

Tuesday, August 28, 2012

  Actual Average Record
Temperature  
Mean Temperature 66 °F -  
Max Temperature 80 °F 78 °F 95 °F (1984)
Min Temperature 55 °F 55 °F 33 °F (1915)
Cooling Degree Days 2    
Growing Degree Days 16 (Base 50)    
Moisture  
Dew Point 56 °F    
Average Humidity 68    
Maximum Humidity 93    
Minimum Humidity 45    
Precipitation  
Precipitation 0.00 in - - ()
Sea Level Pressure  
Sea Level Pressure 30.11 in    
Wind  
Wind Speed 1 mph (SSE)    
Max Wind Speed 7 mph    
Max Gust Speed -    
Visibility 10 miles    
Events      
Averages and records for this station are not official NWS values.
T = Trace of Precipitation, MM = Missing Value Source: NWS Daily Summary

Daily Weather History Graph

Daily Weather History Graph

Search for Another Location

Airport:

Trip Planner

Search our weather history database for the weather conditions in past years. The results will help you decide how hot, cold, wet, or windy it might be!

Date:

Astronomy

Aug. 28, 2012 Rise Set
Actual Time 6:19 AM CDT 7:43 PM CDT
Civil Twilight 5:48 AM CDT 8:13 PM CDT
Nautical Twilight 5:11 AM CDT 8:50 PM CDT
Astronomical Twilight 4:32 AM CDT 9:29 PM CDT
Moon 5:50 PM CDT (8/28) 3:03 AM CDT (8/28)
Length of Visible Light 14h 25m
Length of Day
13h 24m
Waxing Gibbous, 90% of the Moon is Illuminated
Aug 28
Waxing Gibbous
Aug 31
Full
Sep 8
Last Quarter
Sep 15
New
Sep 22
First Quarter

Hourly Weather History & Observations

Time (CDT) Temp. Dew Point Humidity Pressure Visibility Wind Dir Wind Speed Gust Speed Precip Events Conditions
12:54 AM 64.0 °F 55.0 °F 73% 30.12 in 10.0 mi East 3.5 mph - N/A   Mostly Cloudy
1:54 AM 61.0 °F 55.9 °F 83% 30.13 in 10.0 mi Calm Calm - N/A   Mostly Cloudy
2:54 AM 60.1 °F 55.0 °F 83% 30.13 in 10.0 mi Calm Calm - N/A   Partly Cloudy
3:54 AM 59.0 °F 55.0 °F 87% 30.14 in 10.0 mi Calm Calm - N/A   Clear
4:54 AM 57.9 °F 55.0 °F 90% 30.14 in 10.0 mi Calm Calm - N/A   Scattered Clouds
5:54 AM 55.9 °F 54.0 °F 93% 30.14 in 10.0 mi Calm Calm - N/A   Clear
6:54 AM 57.0 °F 54.0 °F 89% 30.15 in 10.0 mi Calm Calm - N/A   Clear
7:54 AM 64.0 °F 57.0 °F 78% 30.18 in 10.0 mi Calm Calm - N/A   Clear
8:54 AM 66.9 °F 57.9 °F 73% 30.18 in 10.0 mi ESE 3.5 mph - N/A   Clear
9:54 AM 72.0 °F 59.0 °F 64% 30.16 in 10.0 mi SSE 4.6 mph - N/A   Clear
10:54 AM 73.9 °F 57.0 °F 55% 30.17 in 10.0 mi Calm Calm - N/A   Clear
11:54 AM 77.0 °F 55.9 °F 48% 30.16 in 10.0 mi Calm Calm - N/A   Partly Cloudy
12:54 PM 75.9 °F 55.0 °F 48% 30.15 in 10.0 mi Calm Calm - N/A   Partly Cloudy
1:54 PM 77.0 °F 55.0 °F 47% 30.13 in 10.0 mi Calm Calm - N/A   Mostly Cloudy
2:54 PM 77.0 °F 55.9 °F 48% 30.08 in 10.0 mi SSE 6.9 mph - N/A   Clear
3:54 PM 77.0 °F 57.9 °F 52% 30.09 in 10.0 mi SSW 5.8 mph - N/A   Clear
4:54 PM 78.1 °F 57.9 °F 50% 30.08 in 10.0 mi SSW 5.8 mph - N/A   Clear
5:54 PM 78.1 °F 55.0 °F 45% 30.07 in 10.0 mi SSE 3.5 mph - N/A   Clear
6:54 PM 75.9 °F 57.0 °F 52% 30.06 in 10.0 mi Calm Calm - N/A   Clear
7:54 PM 70.0 °F 57.9 °F 65% 30.06 in 10.0 mi Calm Calm - N/A   Clear
8:54 PM 66.9 °F 59.0 °F 76% 30.06 in 10.0 mi Calm Calm - N/A   Clear
9:54 PM 64.9 °F 59.0 °F 81% 30.06 in 10.0 mi Calm Calm - N/A   Clear
10:54 PM 64.0 °F 57.9 °F 80% 30.06 in 10.0 mi Calm Calm - N/A   Clear
11:54 PM 63.0 °F 57.0 °F 81% 30.06 in 10.0 mi Calm Calm - N/A   Clear